• In Portugal
  • List of Countries
  • For 7 days
  • Water Temperature
  • Satellite Maps
  • Weather Map
  • Weather Widgets
  • user-avatar
    Login

    Hourly Weather Yerevan

    Today, 25 November, Saturday

    Time Temperature Precipitation Wind Pressure Humidity
    00:00 -3°C° 0 mm 2 mps 691 mmHg 48%
    01:00 -3°C° 0 mm 2 mps 691 mmHg 50%
    02:00 -3°C° 0 mm 2 mps 691 mmHg 53%
    03:00 -2°C° 0 mm 2 mps 690 mmHg 55%
    04:00 -2°C° 0.1 mm 2 mps 691 mmHg 58%
    05:00 -2°C° 0.1 mm 2 mps 692 mmHg 61%
    06:00 -2°C° 0.1 mm 2 mps 692 mmHg 64%
    07:00 -1°C° 0.1 mm 2 mps 693 mmHg 63%
    08:00 -1°C° 0.1 mm 2 mps 693 mmHg 62%
    09:00 +1°C° 0.1 mm 2 mps 694 mmHg 60%
    10:00 +2°C° 0 mm 2 mps 694 mmHg 57%
    11:00 +3°C° 0 mm 2 mps 694 mmHg 53%
    12:00 +3°C° 0 mm 2 mps 694 mmHg 49%
    13:00 +4°C° 0 mm 2 mps 694 mmHg 48%
    14:00 +4°C° 0 mm 2 mps 694 mmHg 46%
    15:00 +4°C° 0 mm 2 mps 695 mmHg 45%
    16:00 +3°C° 0 mm 2 mps 695 mmHg 49%
    17:00 +2°C° 0 mm 2 mps 695 mmHg 52%
    18:00 -1°C° 0 mm 2 mps 696 mmHg 55%
    19:00 -1°C° 0 mm 2 mps 696 mmHg 56%
    20:00 -1°C° 0 mm 2 mps 696 mmHg 57%
    21:00 -1°C° 0 mm 2 mps 696 mmHg 57%
    22:00 -2°C° 0 mm 2 mps 696 mmHg 58%
    23:00 -2°C° 0 mm 2 mps 696 mmHg 58%

    Tomorrow, 26 November, Sunday

    Time Temperature Precipitation Wind Pressure Humidity
    00:00 -2°C° 0 mm 2 mps 696 mmHg 58%
    01:00 0°C° 0 mm 1 mps 696 mmHg 58%
    02:00 0°C° 0 mm 1 mps 696 mmHg 58%
    03:00 0°C° 0 mm 1 mps 696 mmHg 58%
    04:00 -1°C° 0 mm 1 mps 696 mmHg 59%
    05:00 -1°C° 0 mm 1 mps 696 mmHg 59%
    06:00 -1°C° 0 mm 1 mps 696 mmHg 60%
    07:00 +1°C° 0 mm 1 mps 696 mmHg 57%
    08:00 +2°C° 0 mm 1 mps 696 mmHg 54%
    09:00 +3°C° 0 mm 1 mps 695 mmHg 51%
    10:00 +3°C° 0 mm 2 mps 695 mmHg 49%
    11:00 +4°C° 0 mm 2 mps 694 mmHg 47%
    12:00 +5°C° 0 mm 2 mps 693 mmHg 45%
    13:00 +6°C° 0 mm 2 mps 693 mmHg 44%
    14:00 +6°C° 0 mm 2 mps 692 mmHg 44%
    15:00 +6°C° 0 mm 2 mps 692 mmHg 44%
    16:00 +5°C° 0 mm 2 mps 692 mmHg 47%
    17:00 +3°C° 0 mm 2 mps 693 mmHg 50%
    18:00 +2°C° 0 mm 2 mps 693 mmHg 52%
    19:00 +2°C° 0 mm 2 mps 693 mmHg 53%
    20:00 +3°C° 0 mm 1 mps 693 mmHg 54%
    21:00 +2°C° 0 mm 1 mps 693 mmHg 55%
    22:00 +2°C° 0 mm 1 mps 693 mmHg 56%
    23:00 +2°C° 0 mm 1 mps 693 mmHg 57%

    Day after tomorrow, 27 November, Monday

    Time Temperature Precipitation Wind Pressure Humidity
    00:00 +2°C° 0 mm 1 mps 693 mmHg 57%
    01:00 +2°C° 0 mm 1 mps 693 mmHg 58%
    02:00 +2°C° 0 mm 1 mps 693 mmHg 59%
    03:00 +2°C° 0 mm 1 mps 692 mmHg 60%
    04:00 +2°C° 0 mm 1 mps 692 mmHg 60%
    05:00 +1°C° 0 mm 1 mps 692 mmHg 61%
    06:00 +1°C° 0 mm 1 mps 692 mmHg 62%
    07:00 +3°C° 0 mm 1 mps 692 mmHg 59%
    08:00 +4°C° 0 mm 1 mps 692 mmHg 56%
    09:00 +5°C° 0 mm 1 mps 693 mmHg 53%
    10:00 +6°C° 0 mm 1 mps 692 mmHg 51%
    11:00 +6°C° 0 mm 2 mps 692 mmHg 50%
    12:00 +7°C° 0 mm 2 mps 691 mmHg 48%
    13:00 +7°C° 0 mm 2 mps 691 mmHg 47%
    14:00 +8°C° 0 mm 2 mps 691 mmHg 47%
    15:00 +8°C° 0 mm 2 mps 690 mmHg 47%
    16:00 +6°C° 0 mm 2 mps 691 mmHg 50%
    17:00 +5°C° 0 mm 2 mps 691 mmHg 53%
    18:00 +4°C° 0 mm 2 mps 691 mmHg 56%
    19:00 +4°C° 0 mm 1 mps 692 mmHg 56%
    20:00 +4°C° 0 mm 1 mps 692 mmHg 57%
    21:00 +4°C° 0 mm 1 mps 692 mmHg 58%
    22:00 +4°C° 0 mm 1 mps 692 mmHg 58%
    23:00 +3°C° 0 mm 1 mps 692 mmHg 59%

    28 November, Tuesday

    Time Temperature Precipitation Wind Pressure Humidity
    00:00 +3°C° 0 mm 1 mps 692 mmHg 59%
    01:00 +3°C° 0 mm 1 mps 692 mmHg 60%
    02:00 +3°C° 0 mm 1 mps 692 mmHg 60%
    03:00 +3°C° 0 mm 1 mps 692 mmHg 60%
    04:00 +2°C° 0 mm 1 mps 692 mmHg 61%
    05:00 +2°C° 0 mm 1 mps 692 mmHg 61%
    06:00 +2°C° 0 mm 1 mps 692 mmHg 61%
    07:00 +3°C° 0 mm 1 mps 693 mmHg 58%
    08:00 +5°C° 0 mm 1 mps 693 mmHg 54%
    09:00 +6°C° 0 mm 1 mps 693 mmHg 51%
    10:00 +7°C° 0 mm 1 mps 693 mmHg 48%
    11:00 +8°C° 0 mm 1 mps 692 mmHg 46%
    12:00 +8°C° 0 mm 2 mps 692 mmHg 43%
    13:00 +8°C° 0 mm 2 mps 692 mmHg 43%
    14:00 +9°C° 0 mm 2 mps 691 mmHg 43%
    15:00 +9°C° 0 mm 2 mps 691 mmHg 43%
    16:00 +8°C° 0 mm 2 mps 691 mmHg 46%
    17:00 +6°C° 0 mm 2 mps 692 mmHg 49%
    18:00 +6°C° 0 mm 1 mps 692 mmHg 52%
    19:00 +6°C° 0 mm 1 mps 692 mmHg 51%
    20:00 +6°C° 0 mm 1 mps 692 mmHg 51%
    21:00 +6°C° 0 mm 1 mps 693 mmHg 51%
    22:00 +6°C° 0 mm 1 mps 693 mmHg 52%
    23:00 +5°C° 0 mm 1 mps 693 mmHg 53%

    29 November, Wednesday

    Time Temperature Precipitation Wind Pressure Humidity
    00:00 +5°C° 0 mm 1 mps 693 mmHg 54%
    01:00 +5°C° 0 mm 1 mps 693 mmHg 54%
    02:00 +4°C° 0 mm 1 mps 693 mmHg 55%
    03:00 +4°C° 0 mm 1 mps 693 mmHg 56%
    04:00 +4°C° 0 mm 1 mps 693 mmHg 57%
    05:00 +4°C° 0 mm 1 mps 693 mmHg 58%
    06:00 +4°C° 0 mm 1 mps 693 mmHg 58%
    07:00 +5°C° 0 mm 1 mps 693 mmHg 55%
    08:00 +6°C° 0 mm 1 mps 693 mmHg 52%
    09:00 +6°C° 0 mm 2 mps 694 mmHg 49%
    10:00 +8°C° 0 mm 2 mps 693 mmHg 47%
    11:00 +9°C° 0 mm 2 mps 693 mmHg 45%
    12:00 +10°C° 0 mm 2 mps 692 mmHg 43%
    13:00 +10°C° 0 mm 3 mps 692 mmHg 43%
    14:00 +10°C° 0 mm 3 mps 691 mmHg 44%
    15:00 +10°C° 0 mm 3 mps 691 mmHg 44%
    16:00 +9°C° 0.1 mm 2 mps 691 mmHg 48%
    17:00 +8°C° 0.1 mm 2 mps 691 mmHg 52%
    18:00 +7°C° 0.1 mm 2 mps 691 mmHg 55%
    19:00 +7°C° 0.1 mm 2 mps 691 mmHg 57%
    20:00 +7°C° 0.1 mm 2 mps 692 mmHg 58%
    21:00 +6°C° 0.1 mm 2 mps 692 mmHg 59%
    22:00 +6°C° 0.1 mm 2 mps 691 mmHg 60%
    23:00 +6°C° 0.1 mm 2 mps 691 mmHg 61%

    30 November, Thursday

    Time Temperature Precipitation Wind Pressure Humidity
    00:00 +6°C° 0.1 mm 2 mps 691 mmHg 62%
    01:00 +6°C° 0.1 mm 2 mps 691 mmHg 64%
    02:00 +6°C° 0.1 mm 2 mps 691 mmHg 66%
    03:00 +6°C° 0.1 mm 2 mps 691 mmHg 68%
    04:00 +6°C° 0.1 mm 2 mps 691 mmHg 69%
    05:00 +6°C° 0.1 mm 1 mps 691 mmHg 71%
    06:00 +6°C° 0.1 mm 1 mps 691 mmHg 73%
    07:00 +7°C° 0.2 mm 1 mps 691 mmHg 71%
    08:00 +7°C° 0.2 mm 1 mps 691 mmHg 70%
    09:00 +8°C° 0.2 mm 1 mps 692 mmHg 68%
    10:00 +9°C° 0.4 mm 1 mps 691 mmHg 67%
    11:00 +9°C° 0.4 mm 1 mps 691 mmHg 67%
    12:00 +9°C° 0.4 mm 1 mps 691 mmHg 66%
    13:00 +9°C° 0.4 mm 1 mps 691 mmHg 67%
    14:00 +9°C° 0.4 mm 1 mps 691 mmHg 67%
    15:00 +9°C° 0.4 mm 1 mps 691 mmHg 68%
    16:00 +9°C° 0.3 mm 1 mps 691 mmHg 70%
    17:00 +8°C° 0.3 mm 1 mps 692 mmHg 73%
    18:00 +8°C° 0.3 mm 1 mps 692 mmHg 75%
    19:00 +7°C° 0.2 mm 1 mps 693 mmHg 76%
    20:00 +7°C° 0.2 mm 1 mps 693 mmHg 77%
    21:00 +7°C° 0.2 mm 1 mps 693 mmHg 78%
    22:00 +6°C° 0.2 mm 1 mps 693 mmHg 79%
    23:00 +6°C° 0.2 mm 1 mps 694 mmHg 80%
    Show more